www.pogodaiklimat.ru

Погода и климат >> Архив погоды >> Австралия >> Marble Bar


ПОГОДА в Marble Bar

  • Прогноз погоды в Marble Bar
  • Монитор погоды в Marble Bar
  • Климат города

АРХИВ ПОГОДЫ в Marble Bar

Время (UTC), дата Ветер
(напр.,м/с)
 
Видим.   Явления Облачность Т
(С)
Тd
(С)
f
(%)
Тe
(С)
Тes
(С)
Комфортность P
(гПа)
Po
(гПа)
Тmin
(С)
Tmax
(С)
R
(мм)
R24
(мм)
S
(см)
07 10.12 С 3 н/о н/о +44.2 +10.7 14 +43 +43 опасность
перегрева
1001.9 981.9
09 10.12 С 5 н/о н/о +42.9 +17.3 23 +45 +45 опасность
перегрева
1001.4 981.4
10 10.12 С 6 н/о н/о +38.9 +20.2 34 +45 +45 опасность
перегрева
1002.3 982.3
12 10.12 Ю 6 н/о н/о +30.2 +18.6 50 +35 +35 очень
душно
1006.7 986.6
13 10.12 ЮВ 4 н/о н/о +31.2 +18.2 46 +36 +36 очень
душно
1007.1 987.0 +45.2
15 10.12 СЗ 2 н/о н/о +28.0 +21.8 69 +36 +36 очень
душно
1006.7 986.6
16 10.12 СЗ 8 н/о в посл. час дождь {туман} н/о +34.7 +14.0 29 +36 +36 душно 1004.1 984.0
18 10.12 ЮЗ 3 н/о н/о +29.1 +20.5 60 +36 +36 очень
душно
1005.3 985.2
19 10.12 З 2 н/о {туман} н/о +28.4 +21.4 66 +36 +36 очень
душно
1004.8 984.7
21 10.12 штиль 0 н/о н/о +27.7 +23.1 76 +37 +37 очень
душно
1004.7 984.6
22 10.12 штиль 0 н/о н/о +28.5 +22.5 70 +37 +37 очень
душно
1005.4 985.3
00 11.12 ЮЗ 2 н/о н/о +33.4 +19.5 44 +39 +39 очень
душно
1006.6 986.5
01 11.12 ЮЗ 1 н/о {туман} н/о +36.8 +18.8 35 +41 +41 опасность
перегрева
1006.5 986.4 +27.4
03 11.12 З 2 н/о н/о +40.3 +15.8 24 +42 +42 опасность
перегрева
1005.4 985.3
04 11.12 СЗ 3 н/о н/о +42.0 +15.1 21 +43 +43 опасность
перегрева
1004.5 984.4
06 11.12 З 4 н/о н/о +44.2 +12.7 16 +44 +44 опасность
перегрева
1002.9 982.9
07 11.12 З 2 н/о н/о +44.1 +11.7 15 +43 +43 опасность
перегрева
1001.9 981.9
09 11.12 С 5 н/о н/о +40.1 +8.5 15 +38 +38 очень
жарко
1002.1 982.1
10 11.12 С 4 н/о н/о +39.3 +11.4 19 +38 +38 очень
жарко
1001.8 981.8
12 11.12 СЗ 5 н/о н/о +35.8 +15.5 30 +38 +38 очень
душно
1003.6 983.5
13 11.12 С 3 н/о н/о +34.6 +14.0 29 +36 +36 душно 1004.7 984.6 +45.7
15 11.12 С 1 н/о н/о +31.8 +18.0 44 +36 +36 очень
душно
1005.1 985.0
16 11.12 Ю 1 н/о н/о +30.1 +17.9 48 +35 +35 очень
душно
1005.0 984.9
18 11.12 З 1 н/о н/о +29.4 +16.2 45 +33 +33 душно 1004.3 984.2
19 11.12 В 1 н/о н/о +27.6 +16.6 51 +31 +31 душно 1004.6 984.5
21 11.12 З 1 н/о н/о +24.6 +7.0 32 +28 +28 душно 1005.6 985.5
22 11.12 ЮЗ 3 н/о н/о +27.9 +16.5 50 +31 +31 душно 1006.1 986.0
00 12.12 Ю 5 н/о н/о +35.7 -2.0 9 +32 +32 жарко 1006.3 986.2
01 12.12 Ю 5 н/о н/о +38.0 -1.9 8 +34 +34 очень
жарко
1006.4 986.3 +24.6
03 12.12 Ю 5 н/о н/о +41.8 -3.1 6 +38 +38 очень
жарко
1005.2 985.1
04 12.12 ЮЗ 4 н/о н/о +42.9 -2.3 6 +39 +39 очень
жарко
1004.1 984.0
06 12.12 З 4 н/о н/о +44.6 -3.6 5 +40 +40 очень
жарко
1002.5 982.5
07 12.12 З 4 н/о н/о +45.3 -3.1 5 +41 +41 опасность
перегрева
1001.9 981.9
09 12.12 ЮЗ 2 н/о н/о +44.4 -1.2 6 +40 +40 очень
жарко
1001.5 981.5
10 12.12 ЮЗ 2 н/о н/о +43.2 -2.1 6 +39 +39 очень
жарко
1001.7 981.7
12 12.12 штиль 0 н/о н/о +37.0 +0.4 10 +33 +33 жарко 1002.9 982.9
13 12.12 СЗ 3 н/о н/о +36.5 +9.2 19 +35 +35 очень
жарко
1003.7 983.6 +46.1
15 12.12 ЮЗ 4 н/о н/о +34.7 +4.3 15 +32 +32 жарко 1003.9 983.8
16 12.12 Ю 2 н/о н/о +31.9 +5.4 19 +30 +30 жарко 1003.6 983.5
18 12.12 Ю 2 н/о н/о +30.3 +6.2 22 +29 +29 жарко 1002.9 982.9
19 12.12 Ю 3 н/о н/о +30.6 +5.1 20 +29 +29 жарко 1003.2 983.2
21 12.12 Ю 2 н/о н/о +29.5 +2.7 18 +27 +27 жарко 1004.3 984.2
22 12.12 Ю 2 н/о н/о +31.5 +5.1 19 +29 +29 жарко 1005.0 984.9
00 13.12 В 6 н/о н/о +37.6 +9.2 18 +36 +36 очень
жарко
1005.8 985.7
01 13.12 В 6 н/о н/о +38.6 +9.2 17 +37 +37 очень
жарко
1005.9 985.8 +28.9
03 13.12 В 6 н/о н/о +42.2 +10.2 15 +41 +41 опасность
перегрева
1005.2 985.1
04 13.12 В 6 н/о н/о +42.2 +9.2 14 +40 +40 очень
жарко
1004.6 984.5
06 13.12 СВ 3 н/о н/о +43.9 +5.5 10 +41 +41 опасность
перегрева
1002.8 982.8
07 13.12 СВ 3 н/о н/о +43.7 +5.4 10 +41 +41 опасность
перегрева
1002.3 982.3
09 13.12 В 3 н/о н/о +43.5 +6.6 11 +41 +41 опасность
перегрева
1002.0 982.0
10 13.12 В 6 н/о н/о +41.9 +7.8 13 +40 +40 очень
жарко
1002.2 982.2
12 13.12 З 1 н/о н/о +38.8 +10.2 18 +37 +37 очень
жарко
1003.9 983.8
13 13.12 С 2 н/о н/о +37.8 +11.7 21 +37 +37 очень
жарко
1004.5 984.4 +45.8
15 13.12 З 1 н/о н/о +35.0 +10.8 23 +34 +34 очень
жарко
1004.7 984.6
16 13.12 З 1 н/о н/о +34.2 +12.0 26 +34 +34 очень
жарко
1004.1 984.0
18 13.12 В 1 н/о н/о +32.3 +12.5 30 +33 +33 жарко 1003.8 983.7
19 13.12 ЮВ 3 н/о н/о +32.0 +14.6 35 +34 +34 душно 1004.0 983.9
21 13.12 В 5 н/о н/о +33.0 +5.5 18 +31 +31 жарко 1005.1 985.0
22 13.12 В 3 н/о н/о +32.9 +4.6 17 +30 +30 жарко 1005.9 985.8
00 14.12 В 7 н/о н/о +35.4 +3.9 14 +32 +32 жарко 1006.5 986.4
01 14.12 В 6 н/о н/о +37.0 +2.9 12 +34 +34 очень
жарко
1006.2 986.1 +31.1
03 14.12 В 6 н/о н/о +40.4 +1.4 9 +37 +37 очень
жарко
1004.5 984.4
04 14.12 В 5 н/о н/о +42.4 +2.9 9 +39 +39 очень
жарко
1003.7 983.6
06 14.12 С 6 н/о н/о +44.0 +2.4 8 +41 +41 опасность
перегрева
1001.8 981.8
07 14.12 СЗ 3 н/о н/о +43.9 +2.4 8 +40 +40 очень
жарко
1001.1 981.1
09 14.12 С 2 н/о н/о +43.4 +3.7 9 +40 +40 очень
жарко
1000.7 980.7
10 14.12 СЗ 7 н/о н/о +40.7 +13.3 20 +41 +41 опасность
перегрева
1001.2 981.2
12 14.12 С 5 н/о н/о +36.1 +9.3 20 +39 +39 очень
душно
1002.9 982.9
13 14.12 С 4 н/о н/о +34.7 +17.0 35 +38 +38 очень
душно
1003.3 983.3 +45.5
15 14.12 С 2 н/о н/о +32.0 +14.2 34 +34 +34 душно 1003.3 983.3
16 14.12 С 2 н/о н/о +30.7 +14.3 37 +33 +33 душно 1002.5 982.5
18 14.12 С 1 н/о н/о +29.2 +13.4 38 +31 +31 жарко 1001.6 981.6
19 14.12 СВ 1 н/о н/о +28.5 +13.6 40 +30 +30 жарко 1001.5 981.5
21 14.12 С 1 н/о н/о +26.6 +16.5 54 +30 +30 душно 1002.5 982.5
22 14.12 С 1 н/о н/о +27.4 +19.2 61 +33 +33 очень
душно
1003.0 983.0
00 15.12 ЮЗ 1 н/о н/о +32.6 +16.8 39 +36 +36 очень
душно
1003.7 983.6
01 15.12 СЗ 2 н/о н/о +35.1 +15.4 31 +37 +37 очень
душно
1003.5 983.4 +26.6
03 15.12 СЗ 3 н/о н/о +41.2 +3.5 10 +38 +38 очень
жарко
1001.5 981.5
04 15.12 СЗ 5 н/о н/о +42.1 +1.1 8 +38 +38 очень
жарко
1000.8 980.8
06 15.12 СЗ 7 н/о н/о +43.6 +0.3 7 +40 +40 очень
жарко
999.0 979.0
07 15.12 СЗ 6 н/о н/о +43.4 +0.1 7 +40 +40 очень
жарко
998.2 978.3
09 15.12 СЗ 7 н/о н/о +42.3 +2.8 9 +39 +39 очень
жарко
997.9 978.0
10 15.12 СЗ 6 н/о н/о +40.4 +4.3 11 +37 +37 очень
жарко
998.7 978.7
12 15.12 СЗ 5 н/о н/о +34.5 +13.3 28 +35 +35 очень
жарко
1000.4 980.4
13 15.12 С 5 н/о н/о +32.3 +14.9 35 +34 +34 душно 1001.1 981.1 +44.9
15 15.12 С 4 н/о н/о +29.1 +17.6 50 +33 +33 очень
душно
1001.6 981.6
16 15.12 С 3 н/о н/о +28.1 +17.9 54 +33 +33 очень
душно
1001.5 981.5
18 15.12 СЗ 2 н/о н/о +26.6 +17.9 59 +31 +31 душно 1001.4 981.4
19 15.12 С 2 н/о н/о +26.1 +17.7 60 +30 +30 душно 1001.6 981.6
21 15.12 С 1 н/о н/о +23.9 +15.7 60 +27 +27 жарко 1002.6 982.6
22 15.12 С 2 н/о н/о +25.6 +15.6 54 +29 +29 душно 1003.7 983.6
00 16.12 З 3 н/о н/о +30.6 +12.5 33 +31 +31 жарко 1004.6 984.5
01 16.12 З 4 н/о н/о +33.5 +11.4 26 +33 +33 жарко 1004.5 984.4 +23.8
03 16.12 СЗ 5 н/о н/о +37.3 +5.3 14 +35 +35 очень
жарко
1003.3 983.3
04 16.12 СЗ 7 н/о н/о +37.3 +3.1 12 +34 +34 очень
жарко
1002.5 982.5
06 16.12 З 6 н/о н/о +40.0 -2.3 7 +36 +36 очень
жарко
1000.9 980.9
07 16.12 СЗ 7 н/о н/о +39.5 -2.6 7 +35 +35 очень
жарко
1000.4 980.4
09 16.12 СЗ 7 н/о н/о +38.2 -3.6 7 +34 +34 очень
жарко
1000.2 980.2
10 16.12 СЗ 7 н/о н/о +35.5 +7.6 18 +34 +34 очень
жарко
1000.6 980.6
12 16.12 СЗ 7 н/о н/о +29.9 +12.3 34 +31 +31 жарко 1002.5 982.5
13 16.12 СЗ 6 н/о н/о +28.1 +14.7 44 +31 +31 душно 1003.1 983.1 +40.6
15 16.12 СЗ 3 н/о н/о +26.0 +16.0 54 +29 +29 душно 1004.0 983.9
16 16.12 СЗ 3 н/о н/о +25.6 +15.9 55 +29 +29 душно 1003.7 983.6
18 16.12 С 1 н/о н/о +23.9 +14.6 56 +27 +27 жарко 1003.2 983.2
19 16.12 СВ 1 н/о н/о +23.7 +14.1 55 +26 +26 жарко 1003.6 983.5
21 16.12 З 5 н/о н/о +25.7 +7.3 31 +26 +26 жарко 1004.6 984.5
22 16.12 ЮЗ 4 н/о н/о +25.6 +7.2 31 +26 +26 жарко 1005.9 985.8
00 17.12 ЮЗ 5 н/о н/о +28.7 +6.1 24 +28 +28 жарко 1007.3 987.2
01 17.12 Ю 3 н/о н/о +29.8 +5.8 22 +28 +28 жарко 1007.3 987.2 +22.1
03 17.12 ЮЗ 4 н/о н/о +32.4 +2.5 15 +30 +30 жарко 1006.3 986.2
04 17.12 ЮЗ 4 н/о н/о +34.5 -2.9 9 +31 +31 жарко 1005.5 985.4
06 17.12 З 5 н/о н/о +36.3 -7.0 6 +32 +32 жарко 1003.9 983.8

 

Местоположение метеостанции Marble Bar (Западная Австралия, Австралия): широта -21.18 долгота 119.75 высота над уровнем моря 183 м.

В архиве по умолчанию представлена погода в Marble Bar за последнюю неделю. Архивные данные за месяц целиком и за предыдущие месяцы, начиная с января 2011 года, Вы можете получить, выбрав интересующий диапазон дат из раскрывающегося списка и нажав кнопку "Ввод!".


*Определитесь, кто Вы:
робот инопланетянин человек

Внимание! Время в таблицах - всемирное. Для получения местного времени необходимо прибавить поправку, которая в Marble Bar равна 8 ч.

Смотрите также архив погоды в соседних городах и на ближайших метеорологических станциях:

Погода в Port Hedland Apardoo (Западная Австралия, Австралия) (148 км)
Погода в Mandora (Западная Австралия, Австралия) (198 км)
Погода в Newman Aero (Западная Австралия, Австралия) (248 км)
Погода в Telfer Aero (Западная Австралия, Австралия) (261 км)
Погода в Roebourne Aero (Западная Австралия, Австралия) (274 км)
Погода в Paraburdoo Aero (Западная Австралия, Австралия) (302 км)
Погода в Karratha Aero (Западная Австралия, Австралия) (314 км)
Погода в Mardie (Западная Австралия, Австралия) (392 км)
Погода в Rowley Shoals (Западная Австралия, Австралия) (415 км)
Погода в Varanus Island (Западная Австралия, Австралия) (438 км)

Пояснения к столбцам:

Ветер - указаны скорость ветра в м/с - средняя за 10 мин, порывы в срок и между сроками (в фигурных скобках) и направление, откуда дует ветер: С - северный, СВ - северо-восточный, В - восточный, ЮВ - юго-восточный, Ю - южный, ЮЗ - юго-западный, З - западный, СЗ - северо-западный.
Видимость - горизонтальная дальность видимости в метрах или километрах. При видимости от 1 до 10 км при отсутствии осадков обычно наблюдается дымка, при ухудшении видимости до 1 км и менее - туман. В сухую погоду видимость может ухудшаться дымом, пылью или мглою.
Явления - указаны атмосферные явления, наблюдавшиеся в срок или в последний час перед сроком; фигурными скобками обозначены явления, наблюдавшиеся между сроками (за 1-3 часа до срока); квадратными скобками обозначены град или гололедные отложения с указанием их диаметра в мм.
Облачность - указаны через наклонную черту общая и нижняя облачность в баллах и высота нижней границы облаков в метрах; квадратными скобками обозначены формы облаков: Ci - перистые, Cs - перисто-слоистые, Cc - перисто-кучевые, Ac - высококучевые, As - высокослоистые, Sc - слоисто-кучевые, Ns - слоисто-дождевые, Cu - кучевые, Cb - кучево-дождевые. Подробнее классификацию облаков см. в Атласе облаков (PDF).
T - Температура воздуха - температура, измеренная на высоте 2 м над землей.
Td - Температура точки росы - температура, при понижении до которой содержащийся в воздухе водяной пар достигнет насыщения.
f - Относительная влажность воздуха - влажноcть воздуха, измеренная на высоте 2 м над землей.
Te - Эффективная температура - температура, которую ощущает одетый по сезону человек в тени. Характеристика душности погоды. При расчете учитывается влияние влажности воздуха и скорости ветра на теплоощущения человека.
Tes - Эффективная температура на солнце - температура, которую ощущает человек, с поправкой на солнечный нагрев. Характеристика знойности погоды. Зависит от высоты солнца над горизонтом, облачности и скорости ветра. Ночью, в пасмурную погоду, а также при ветре 12 м/с и более поправка равна нулю.
P - Атмосферное давление - приведенное к уровню моря атмосферное давление.
Po - Атмосферное давление - измеренное на уровне метеостанции атмосферное давление.
Tmin - Минимальная температура - минимум температуры воздуха на высоте 2 м над землей.
Tmax - Максимальная температура - максимум температуры воздуха на высоте 2 м над землей.
R - Количество осадков - Количество выпавших осадков за период времени, мм. При наведении курсора мыши на число - период времени, за который выпало указанное количество осадков.
R24 - Количество осадков - Количество выпавших осадков за 24 часа, мм.
S - Снежный покров - Высота снежного покрова, см. При наведении курсора мыши на число - состояние снежного покрова и степень покрытия местности в баллах.